Location: Newark
(45.8511°N, 10.8245°E)
Time: 09:37:07
(UTC+00:00)

OTV 5 (USA 277) - Pass Details

Date: 26 August 2019
Orbit: 310 x 324 km, 54.5° (Epoch: 17 October)

Event Time Altitude Azimuth Distance (km) Brightness Sun altitude
Rises 19:57:14 0° 258° (WSW) 2,037 ? -18.0°
Reaches altitude 10° 19:59:19 10° 270° (W) 1,208 ? -18.3°
Maximum altitude 20:01:45 30° 335° (NNW) 597 ? -18.6°
Enters shadow 20:03:12 18° 27° (NNE) 870 ? -18.8°
